Zurück zum Katalog

FENGYUN 1C DEB

AktivSSO
NORAD 30235·DEBRIS·🇨🇳 China

Gestartet May 10, 1999 von Taiyuan Satellite Launch Center

Loading…

Nächste Überflüge (nächste 24 Stunden)

TLE

AktuellSource: Space-Track

Epoche: Sep 13, 2026, 13:37 UTC

1 30235U 99025WU  26256.56747160  .00000493  00000-0  27630-3 0  9992
2 30235  98.7367 271.6403 0153738 181.1639 302.3076 14.09120971  7624

Verfolge FENGYUN 1C DEB in Echtzeit mit AllMySat

Download on the App Store